Home   Weather   Horw   Past weeks

Flag for Switzerland Past Weather in Horw, Lucerne, Switzerland — Yesterday and Last 2 Weeks

Now
60 °F

Cool.


Feels Like: 60 °F
Forecast: 48 / 75 °F
Wind: 1 mph from Northeast

Location: Giswil

Current Time: Sep 28, 2016 at 12:29:30 PM

Latest Report: Sep 28, 2016 at 11:00 AM


Visibility: N/A

Pressure: 30.46 "Hg

Humidity: 76%

Dew Point: 53 °F

Location of HorwLocation

Past Weather in Horw — Graph

°F

Horw Temperature Yesterday

Maximum temperature yesterday: 69 °F (at 4:00 PM)
Minimum temperature yesterday: 52 °F (at 11:00 PM)
Average temperature yesterday: 59 °F

High & Low Weather Summary for the Past Weeks

 TemperatureHumidityPressure
High80 °F (Sep 13, 5:00 PM)100% (Sep 16, 8:00 AM)30.49 "Hg (Sep 16, 8:00 AM)
Low44 °F (Sep 25, 7:00 AM)48% (Sep 14, 12:00 PM)29.74 "Hg (Sep 15, 5:00 AM)
Average59 °F87%30.09 "Hg
* Reported Sep 13 11:00 AM — Sep 28 11:00 AM, Horw, Weather by CustomWeather, © 2016

Note: Actual official high and low records may vary slightly from our data, if they occured in-between our weather recording intervals... More about our weather records

Advertising

Horw Weather History for the Previous 24 Hours

Scroll right to see more
 ConditionsComfort  
Time TempWeatherWind HumidityBarometerVisibility
11:00 AM
Wed, Sep 28
60 °FCool.1 mph76%30.46 "HgN/A
10:00 AM55 °FCool.2 mph99%30.48 "HgN/A
9:00 AM48 °FCool.1 mph99%30.49 "HgN/A
8:00 AM46 °FCool.1 mph99%30.47 "HgN/A
7:00 AM45 °FCool.2 mph99%30.47 "HgN/A
6:00 AM46 °FCool.2 mph99%30.46 "HgN/A
5:00 AM46 °FCool.1 mph99%30.45 "HgN/A
4:00 AM48 °FCool.1 mph99%30.44 "HgN/A
3:00 AM47 °FCool.2 mph99%30.45 "HgN/A
2:00 AM48 °FCool.2 mph99%30.43 "HgN/A
1:00 AM50 °FCool.1 mph100%30.42 "HgN/A
12:00 AM51 °FCool.1 mph99%30.40 "HgN/A
11:00 PM
Tue, Sep 27
52 °FCool.2 mph99%30.40 "HgN/A
10:00 PM55 °FCool.2 mph98%30.39 "HgN/A
9:00 PM54 °FCool.2 mph99%30.38 "HgN/A
8:00 PM55 °FCool.1 mph99%30.36 "HgN/A
7:00 PM60 °FCool.1 mph91%30.32 "HgN/A
6:00 PM66 °FMild.No wind74%30.28 "HgN/A
5:00 PM67 °FMild.2 mph67%30.27 "HgN/A
4:00 PM69 °FMild.3 mph63%30.26 "HgN/A
3:00 PM67 °FMild.2 mph67%30.26 "HgN/A
2:00 PM66 °FMild.3 mph69%30.27 "HgN/A
1:00 PM65 °FMild.5 mph77%30.28 "HgN/A
12:00 PM63 °FMild.5 mph78%30.28 "HgN/A
Weather by CustomWeather, © 2016

See weather overviewHow to use our weather pages